Terug naar catalogus

COSMOS 2251 DEB

ActiefLEO
NORAD 35453·DEBRIS·🇷🇺 Russia

Gelanceerd Jun 16, 1993 vanaf Plesetsk Cosmodrome

Loading…

Volgende Passages (komende 24 uur)

TLE

VerouderendSource: Space-Track

Epoch: Sep 12, 2026, 06:38 UTC

1 35453U 93036AKX 26255.27686986  .00001119  00000-0  36146-3 0  9998
2 35453  74.0058 235.2360 0069681 301.3878  58.0472 14.38963708901529

Volg COSMOS 2251 DEB in realtime met AllMySat

Download on the App Store